Time,TemperatureF,DewpointF,PressureIn,WindDirection,WindDirectionDegrees,WindSpeedMPH,WindSpeedGustMPH,Humidity,HourlyPrecipIn,Conditions,Clouds,dailyrainin,SolarRadiationWatts/m^2,SoftwareType,DateUTC
2013-05-28 00:01:00,59.6,43.4,30.04,SW,223,0.0,0.0,55,0.00,OVC,,0.00,0.0,WeatherDisplay:10.37,2013-05-28 04:01:00,
2013-05-28 00:02:00,59.6,43.4,30.04,SW,223,0.0,0.0,55,0.00,OVC,,0.00,0.0,WeatherDisplay:10.37,2013-05-28 04:02:00,
2013-05-28 00:04:00,59.5,43.3,30.04,SW,223,0.0,0.0,55,0.00,OVC,,0.00,0.0,WeatherDisplay:10.37,2013-05-28 04:04:00,
2013-05-28 00:05:00,59.5,43.8,30.04,SW,223,0.0,0.0,56,0.00,OVC,,0.00,0.0,WeatherDisplay:10.37,2013-05-28 04:05:00,
2013-05-28 00:10:00,59.5,43.8,30.04,SW,223,0.0,0.0,56,0.00,OVC,,0.00,0.0,WeatherDisplay:10.37,2013-05-28 04:10:00,
2013-05-28 00:15:00,59.5,43.8,30.04,SW,223,0.0,0.0,56,0.00,OVC,,0.00,0.0,WeatherDisplay:10.37,2013-05-28 04:15:00,
2013-05-28 00:20:00,59.3,43.6,30.04,SW,223,0.0,0.0,56,0.00,OVC,,0.00,0.0,WeatherDisplay:10.37,2013-05-28 04:20:00,
2013-05-28 00:25:00,59.3,43.6,30.04,SW,223,0.0,0.0,56,0.00,OVC,,0.00,0.0,WeatherDisplay:10.37,2013-05-28 04:25:00,
2013-05-28 00:30:00,59.3,43.6,30.05,SW,223,0.0,0.0,56,0.00,OVC,,0.00,0.0,WeatherDisplay:10.37,2013-05-28 04:30:00,
2013-05-28 00:35:00,59.3,43.6,30.05,SW,223,0.0,0.0,56,0.00,OVC,,0.00,0.0,WeatherDisplay:10.37,2013-05-28 04:35:00,
2013-05-28 00:40:00,59.2,44.0,30.05,SW,223,0.0,0.0,57,0.00,OVC,,0.00,0.0,WeatherDisplay:10.37,2013-05-28 04:40:00,
2013-05-28 00:45:00,59.2,44.0,30.05,SW,223,0.0,0.0,57,0.00,OVC,,0.00,0.0,WeatherDisplay:10.37,2013-05-28 04:45:00,
2013-05-28 00:50:00,59.2,44.0,30.05,SW,223,0.0,0.0,57,0.00,OVC,,0.00,0.0,WeatherDisplay:10.37,2013-05-28 04:50:00,
2013-05-28 00:55:00,59.0,43.8,30.05,SW,223,0.0,0.0,57,0.00,OVC,,0.00,0.0,WeatherDisplay:10.37,2013-05-28 04:55:00,
2013-05-28 01:00:00,59.0,43.8,30.05,SW,223,0.0,0.0,57,0.00,OVC,,0.00,0.0,WeatherDisplay:10.37,2013-05-28 05:00:00,
2013-05-28 01:05:00,58.9,43.7,30.05,SW,223,0.0,0.0,57,0.00,OVC,,0.00,0.0,WeatherDisplay:10.37,2013-05-28 05:05:00,
2013-05-28 01:10:00,58.9,43.7,30.05,SW,223,0.0,0.0,57,0.00,OVC,,0.00,0.0,WeatherDisplay:10.37,2013-05-28 05:10:00,
2013-05-28 01:15:00,58.9,44.1,30.05,SW,223,0.0,0.0,58,0.00,OVC,,0.00,0.0,WeatherDisplay:10.37,2013-05-28 05:15:00,
2013-05-28 01:20:00,58.7,44.8,30.05,SW,223,0.0,0.0,60,0.00,OVC,,0.00,0.0,WeatherDisplay:10.37,2013-05-28 05:20:00,
2013-05-28 01:25:00,58.7,44.8,30.05,SW,223,0.0,0.0,60,0.00,OVC,,0.00,0.0,WeatherDisplay:10.37,2013-05-28 05:25:00,
2013-05-28 01:30:00,58.7,44.8,30.05,SW,223,0.0,0.0,60,0.00,OVC,,0.00,0.0,WeatherDisplay:10.37,2013-05-28 05:30:00,
2013-05-28 01:36:00,58.6,44.8,30.05,SW,223,0.0,0.0,60,0.00,OVC,,0.00,0.0,WeatherDisplay:10.37,2013-05-28 05:36:00,
2013-05-28 01:41:00,58.4,44.6,30.05,SW,223,0.0,0.0,60,0.00,OVC,,0.00,0.0,WeatherDisplay:10.37,2013-05-28 05:41:00,
2013-05-28 01:46:00,58.4,44.6,30.04,SW,223,0.0,0.0,60,0.00,OVC,,0.00,0.0,WeatherDisplay:10.37,2013-05-28 05:46:00,
2013-05-28 01:51:00,58.4,45.0,30.04,SW,223,0.0,0.0,61,0.00,OVC,,0.00,0.0,WeatherDisplay:10.37,2013-05-28 05:51:00,
2013-05-28 01:56:00,58.3,44.9,30.04,SW,223,0.0,0.0,61,0.00,OVC,,0.00,0.0,WeatherDisplay:10.37,2013-05-28 05:56:00,
2013-05-28 02:01:00,58.3,44.9,30.04,SW,223,0.0,0.0,61,0.00,OVC,,0.00,0.0,WeatherDisplay:10.37,2013-05-28 06:01:00,
2013-05-28 02:06:00,58.3,45.3,30.04,SW,223,0.0,0.0,62,0.00,OVC,,0.00,0.0,WeatherDisplay:10.37,2013-05-28 06:06:00,
2013-05-28 02:11:00,58.1,45.1,30.04,SW,223,0.0,0.0,62,0.00,OVC,,0.00,0.0,WeatherDisplay:10.37,2013-05-28 06:11:00,
2013-05-28 02:16:00,58.1,45.1,30.05,SW,223,0.0,0.0,62,0.00,OVC,,0.00,0.0,WeatherDisplay:10.37,2013-05-28 06:16:00,
2013-05-28 02:21:00,58.0,45.5,30.05,SW,223,0.0,0.0,63,0.00,OVC,,0.00,0.0,WeatherDisplay:10.37,2013-05-28 06:21:00,
2013-05-28 02:26:00,57.8,45.3,30.05,SW,223,0.0,0.0,63,0.00,OVC,,0.00,0.0,WeatherDisplay:10.37,2013-05-28 06:26:00,
2013-05-28 02:31:00,57.6,45.1,30.04,SW,223,0.0,0.0,63,0.00,OVC,,0.00,0.0,WeatherDisplay:10.37,2013-05-28 06:31:00,
2013-05-28 02:36:00,57.6,45.1,30.04,SW,223,0.0,0.0,63,0.00,OVC,,0.00,0.0,WeatherDisplay:10.37,2013-05-28 06:36:00,
2013-05-28 02:41:00,57.5,45.4,30.04,SW,223,0.0,0.0,64,0.00,OVC,,0.00,0.0,WeatherDisplay:10.37,2013-05-28 06:41:00,
2013-05-28 02:46:00,57.5,45.8,30.04,SW,223,0.0,0.0,65,0.00,OVC,,0.00,0.0,WeatherDisplay:10.37,2013-05-28 06:46:00,
2013-05-28 02:51:00,57.3,45.6,30.04,SW,223,0.0,0.0,65,0.00,OVC,,0.00,0.0,WeatherDisplay:10.37,2013-05-28 06:51:00,
2013-05-28 02:56:00,57.2,45.1,30.04,SW,223,0.0,0.0,64,0.00,OVC,,0.00,0.0,WeatherDisplay:10.37,2013-05-28 06:56:00,
2013-05-28 03:01:00,57.0,44.9,30.04,SW,223,0.0,0.0,64,0.00,OVC,,0.00,0.0,WeatherDisplay:10.37,2013-05-28 07:01:00,
2013-05-28 03:06:00,57.0,44.9,30.04,SW,223,0.0,0.0,64,0.00,OVC,,0.00,0.0,WeatherDisplay:10.37,2013-05-28 07:06:00,
2013-05-28 03:11:00,57.0,45.3,30.04,SW,223,0.0,0.0,65,0.00,OVC,,0.00,0.0,WeatherDisplay:10.37,2013-05-28 07:11:00,
2013-05-28 03:16:00,57.0,45.3,30.03,SW,223,0.0,0.0,65,0.00,OVC,,0.00,0.0,WeatherDisplay:10.37,2013-05-28 07:16:00,
2013-05-28 03:21:00,56.9,45.3,30.03,SW,223,0.0,0.0,65,0.00,OVC,,0.00,0.0,WeatherDisplay:10.37,2013-05-28 07:21:00,
2013-05-28 03:26:00,56.9,45.3,30.03,SW,223,0.0,0.0,65,0.00,OVC,,0.00,0.0,WeatherDisplay:10.37,2013-05-28 07:26:00,
2013-05-28 03:31:00,56.9,45.3,30.03,SW,223,0.0,0.0,65,0.00,OVC,,0.00,0.0,WeatherDisplay:10.37,2013-05-28 07:31:00,
2013-05-28 03:36:00,56.9,45.3,30.03,SW,223,0.0,0.0,65,0.00,OVC,,0.00,0.0,WeatherDisplay:10.37,2013-05-28 07:36:00,
2013-05-28 03:41:00,56.9,45.7,30.03,SW,223,0.0,0.0,66,0.00,OVC,,0.00,0.0,WeatherDisplay:10.37,2013-05-28 07:41:00,
2013-05-28 03:46:00,57.0,46.1,30.03,SW,223,0.0,0.0,67,0.00,OVC,,0.00,0.0,WeatherDisplay:10.37,2013-05-28 07:46:00,
2013-05-28 03:51:00,57.2,46.3,30.03,SW,223,0.0,0.0,67,0.00,OVC,,0.00,0.0,WeatherDisplay:10.37,2013-05-28 07:51:00,
2013-05-28 03:56:00,57.2,46.3,30.03,SW,223,0.0,0.0,67,0.00,OVC,,0.00,0.0,WeatherDisplay:10.37,2013-05-28 07:56:00,
2013-05-28 04:01:00,57.2,45.9,30.03,SW,223,0.0,0.0,66,0.00,OVC,,0.00,0.0,WeatherDisplay:10.37,2013-05-28 08:01:00,
2013-05-28 04:06:00,57.3,46.4,30.03,SW,223,0.0,0.0,67,0.00,OVC,,0.00,0.0,WeatherDisplay:10.37,2013-05-28 08:06:00,
2013-05-28 04:11:00,57.5,46.6,30.03,SW,223,0.0,0.0,67,0.00,OVC,,0.00,0.0,WeatherDisplay:10.37,2013-05-28 08:11:00,
2013-05-28 04:16:00,57.5,46.6,30.03,SW,223,0.0,0.0,67,0.00,OVC,,0.00,0.0,WeatherDisplay:10.37,2013-05-28 08:16:00,
2013-05-28 04:21:00,57.6,46.7,30.03,SW,223,0.0,0.0,67,0.00,OVC,,0.00,0.0,WeatherDisplay:10.37,2013-05-28 08:21:00,
2013-05-28 04:26:00,57.6,46.7,30.03,SW,223,0.0,0.0,67,0.00,OVC,,0.00,0.0,WeatherDisplay:10.37,2013-05-28 08:26:00,
2013-05-28 04:31:00,57.6,46.3,30.02,SW,223,0.0,0.0,66,0.00,OVC,,0.00,0.0,WeatherDisplay:10.37,2013-05-28 08:31:00,
2013-05-28 04:36:00,57.5,45.8,30.02,SW,223,0.0,0.0,65,0.00,OVC,,0.00,0.0,WeatherDisplay:10.37,2013-05-28 08:36:00,
2013-05-28 04:41:00,57.5,45.8,30.02,SW,223,0.0,0.0,65,0.00,OVC,,0.00,0.0,WeatherDisplay:10.37,2013-05-28 08:41:00,
2013-05-28 04:46:00,57.6,46.7,30.03,SW,223,0.0,0.0,67,0.00,OVC,,0.00,0.0,WeatherDisplay:10.37,2013-05-28 08:46:00,
2013-05-28 04:51:00,57.6,46.3,30.03,SW,223,0.0,0.0,66,0.00,OVC,,0.00,0.0,WeatherDisplay:10.37,2013-05-28 08:51:00,
2013-05-28 04:56:00,57.6,46.3,30.03,SW,223,0.0,0.0,66,0.00,OVC,,0.00,0.0,WeatherDisplay:10.37,2013-05-28 08:56:00,
2013-05-28 05:01:00,57.8,46.5,30.02,SW,223,0.0,0.0,66,0.00,OVC,,0.00,0.0,WeatherDisplay:10.37,2013-05-28 09:01:00,
2013-05-28 05:06:00,58.0,46.3,30.02,SW,223,0.0,0.0,65,0.00,OVC,,0.00,0.0,WeatherDisplay:10.37,2013-05-28 09:06:00,
2013-05-28 05:11:00,58.1,46.4,30.02,SW,223,0.0,0.0,65,0.00,OVC,,0.00,0.0,WeatherDisplay:10.37,2013-05-28 09:11:00,
2013-05-28 05:16:00,58.1,46.8,30.02,SW,223,0.0,0.0,66,0.00,OVC,,0.00,0.0,WeatherDisplay:10.37,2013-05-28 09:16:00,
2013-05-28 05:21:00,58.1,46.8,30.02,SW,223,0.0,0.0,66,0.00,OVC,,0.00,0.0,WeatherDisplay:10.37,2013-05-28 09:21:00,
2013-05-28 05:26:00,58.1,46.8,30.02,SW,223,0.0,0.0,66,0.00,OVC,,0.00,0.0,WeatherDisplay:10.37,2013-05-28 09:26:00,
2013-05-28 05:31:00,58.1,46.8,30.03,SW,223,0.0,0.0,66,0.00,OVC,,0.00,5.0,WeatherDisplay:10.37,2013-05-28 09:31:00,
2013-05-28 05:36:00,58.0,46.7,30.03,SW,223,0.0,0.0,66,0.00,OVC,,0.00,0.0,WeatherDisplay:10.37,2013-05-28 09:36:00,
2013-05-28 05:41:00,58.0,47.1,30.03,SW,223,0.0,0.0,67,0.00,OVC,,0.00,5.0,WeatherDisplay:10.37,2013-05-28 09:41:00,
2013-05-28 05:46:00,57.8,46.9,30.03,SW,223,0.0,0.0,67,0.00,OVC,,0.00,5.0,WeatherDisplay:10.37,2013-05-28 09:46:00,
2013-05-28 05:51:00,57.8,46.9,30.03,SW,223,0.0,0.0,67,0.00,OVC,,0.00,7.0,WeatherDisplay:10.37,2013-05-28 09:51:00,
2013-05-28 05:56:00,57.6,46.7,30.03,SW,223,0.0,0.0,67,0.00,OVC,,0.00,11.0,WeatherDisplay:10.37,2013-05-28 09:56:00,
2013-05-28 06:01:00,57.6,47.1,30.03,SW,223,0.0,0.0,68,0.00,OVC,,0.00,12.0,WeatherDisplay:10.37,2013-05-28 10:01:00,
2013-05-28 06:06:00,57.6,47.1,30.03,SW,223,0.0,0.0,68,0.00,OVC,,0.00,18.0,WeatherDisplay:10.37,2013-05-28 10:06:00,
2013-05-28 06:11:00,57.6,47.5,30.03,SW,223,0.0,0.0,69,0.00,OVC,,0.00,21.0,WeatherDisplay:10.37,2013-05-28 10:11:00,
2013-05-28 06:16:00,57.6,47.5,30.04,SW,223,0.0,0.0,69,0.00,BKN,,0.00,26.0,WeatherDisplay:10.37,2013-05-28 10:16:00,
2013-05-28 06:21:00,57.6,47.5,30.04,SW,223,0.0,0.0,69,0.00,BKN,,0.00,32.0,WeatherDisplay:10.37,2013-05-28 10:21:00,
2013-05-28 06:26:00,57.6,47.5,30.04,SW,223,0.0,0.0,69,0.00,BKN,,0.00,35.0,WeatherDisplay:10.37,2013-05-28 10:26:00,
2013-05-28 06:31:00,57.8,48.5,30.04,SW,223,0.0,0.0,71,0.00,BKN,,0.00,37.0,WeatherDisplay:10.37,2013-05-28 10:31:00,
2013-05-28 06:36:00,58.0,48.6,30.04,SW,223,0.0,0.0,71,0.00,BKN,,0.00,44.0,WeatherDisplay:10.37,2013-05-28 10:36:00,
2013-05-28 06:41:00,58.1,48.7,30.04,SW,223,0.0,0.0,71,0.00,BKN,,0.00,70.0,WeatherDisplay:10.37,2013-05-28 10:41:00,
2013-05-28 06:46:00,58.3,48.9,30.04,SW,223,0.0,0.0,71,0.00,BKN,,0.00,69.0,WeatherDisplay:10.37,2013-05-28 10:46:00,
2013-05-28 06:51:00,58.6,49.6,30.04,SW,223,0.0,0.0,72,0.00,BKN,,0.00,58.0,WeatherDisplay:10.37,2013-05-28 10:51:00,
2013-05-28 06:56:00,58.9,49.9,30.04,SW,223,0.0,0.0,72,0.00,BKN,,0.00,63.0,WeatherDisplay:10.37,2013-05-28 10:56:00,
2013-05-28 07:01:00,59.0,50.0,30.04,SW,223,0.0,0.0,72,0.00,BKN,,0.00,53.0,WeatherDisplay:10.37,2013-05-28 11:01:00,
2013-05-28 07:06:00,59.2,49.8,30.04,SW,223,0.0,0.0,71,0.00,BKN,,0.00,55.0,WeatherDisplay:10.37,2013-05-28 11:06:00,
2013-05-28 07:11:00,59.3,49.5,30.04,SW,223,0.0,0.0,70,0.00,BKN,,0.00,60.0,WeatherDisplay:10.37,2013-05-28 11:11:00,
2013-05-28 07:16:00,59.5,50.1,30.04,SW,223,0.0,0.0,71,0.00,OVC,,0.00,62.0,WeatherDisplay:10.37,2013-05-28 11:16:00,
2013-05-28 07:21:00,59.6,50.2,30.04,SW,223,0.0,0.0,71,0.00,OVC,,0.00,76.0,WeatherDisplay:10.37,2013-05-28 11:21:00,
2013-05-28 07:26:00,59.9,50.1,30.04,SW,223,0.0,0.0,70,0.00,OVC,,0.00,93.0,WeatherDisplay:10.37,2013-05-28 11:26:00,
2013-05-28 07:31:00,60.1,50.3,30.04,SW,223,0.0,0.0,70,0.00,OVC,,0.00,99.0,WeatherDisplay:10.37,2013-05-28 11:31:00,
2013-05-28 07:36:00,60.2,50.8,30.04,SW,223,0.0,0.0,71,0.00,OVC,,0.00,86.0,WeatherDisplay:10.37,2013-05-28 11:36:00,
2013-05-28 07:41:00,60.5,50.3,30.04,SW,223,0.0,0.0,69,0.00,OVC,,0.00,90.0,WeatherDisplay:10.37,2013-05-28 11:41:00,
2013-05-28 07:46:00,60.7,50.9,30.04,SW,223,0.0,0.0,70,0.00,OVC,,0.00,113.0,WeatherDisplay:10.37,2013-05-28 11:46:00,
2013-05-28 07:51:00,60.9,50.7,30.04,SW,223,0.0,0.0,69,0.00,OVC,,0.00,130.0,WeatherDisplay:10.37,2013-05-28 11:51:00,
2013-05-28 07:56:00,61.2,50.9,30.04,SW,223,0.0,0.0,69,0.00,OVC,,0.00,153.0,WeatherDisplay:10.37,2013-05-28 11:56:00,
2013-05-28 08:01:00,61.3,50.2,30.04,SW,223,0.0,0.0,67,0.00,OVC,,0.00,188.0,WeatherDisplay:10.37,2013-05-28 12:01:00,
2013-05-28 08:06:00,61.6,50.5,30.04,SW,223,0.0,0.0,67,0.00,OVC,,0.00,190.0,WeatherDisplay:10.37,2013-05-28 12:06:00,
2013-05-28 08:11:00,62.0,50.9,30.04,SW,223,0.0,0.0,67,0.00,OVC,,0.00,146.0,WeatherDisplay:10.37,2013-05-28 12:11:00,
2013-05-28 08:16:00,62.3,50.4,30.04,SW,223,0.0,0.0,65,0.00,OVC,,0.00,113.0,WeatherDisplay:10.37,2013-05-28 12:16:00,
2013-05-28 08:21:00,62.4,50.5,30.04,SW,223,0.0,0.0,65,0.00,OVC,,0.00,104.0,WeatherDisplay:10.37,2013-05-28 12:21:00,
2013-05-28 08:26:00,62.6,50.7,30.04,SW,223,0.0,0.0,65,0.00,OVC,,0.00,125.0,WeatherDisplay:10.37,2013-05-28 12:26:00,
2013-05-28 08:31:00,62.6,50.2,30.05,SW,223,0.0,0.0,64,0.00,OVC,,0.00,123.0,WeatherDisplay:10.37,2013-05-28 12:31:00,
2013-05-28 08:36:00,62.7,51.2,30.05,SW,223,0.0,0.0,66,0.00,OVC,,0.00,130.0,WeatherDisplay:10.37,2013-05-28 12:36:00,
2013-05-28 08:41:00,62.7,51.6,30.05,SW,223,0.0,0.0,67,0.00,OVC,,0.00,111.0,WeatherDisplay:10.37,2013-05-28 12:41:00,
2013-05-28 08:46:00,62.9,51.8,30.05,SSW,210,0.0,0.0,67,0.00,OVC,,0.00,120.0,WeatherDisplay:10.37,2013-05-28 12:46:00,
2013-05-28 08:51:00,62.9,52.6,30.05,SSW,210,0.0,0.0,69,0.00,OVC,,0.00,118.0,WeatherDisplay:10.37,2013-05-28 12:51:00,
2013-05-28 08:56:00,63.1,52.4,30.05,SSW,210,0.0,0.0,68,0.00,OVC,,0.00,127.0,WeatherDisplay:10.37,2013-05-28 12:56:00,
2013-05-28 09:01:00,63.1,52.8,30.05,SSW,210,0.0,0.0,69,0.00,OVC,,0.00,135.0,WeatherDisplay:10.37,2013-05-28 13:01:00,
2013-05-28 09:06:00,63.1,53.2,30.05,SSW,210,0.0,0.0,70,0.00,OVC,,0.00,127.0,WeatherDisplay:10.37,2013-05-28 13:06:00,
2013-05-28 09:11:00,63.1,52.8,30.05,SSW,210,0.0,0.0,69,0.00,OVC,,0.00,111.0,WeatherDisplay:10.37,2013-05-28 13:11:00,
2013-05-28 09:16:00,63.1,52.8,30.05,SSW,210,0.0,0.0,69,0.00,-RA,,0.00,113.0,WeatherDisplay:10.37,2013-05-28 13:16:00,
2013-05-28 09:21:00,63.1,52.4,30.05,SSW,210,0.0,0.0,68,0.00,-RA,,0.00,121.0,WeatherDisplay:10.37,2013-05-28 13:21:00,
2013-05-28 09:26:00,63.2,53.3,30.05,SSW,210,0.0,0.0,70,0.00,-RA,,0.00,141.0,WeatherDisplay:10.37,2013-05-28 13:26:00,
2013-05-28 09:31:00,63.2,54.8,30.05,SSW,210,0.0,0.0,74,0.00,-RA,,0.00,130.0,WeatherDisplay:10.37,2013-05-28 13:31:00,
2013-05-28 09:36:00,63.4,55.7,30.05,SSW,210,0.0,0.0,76,0.00,-RA,,0.00,141.0,WeatherDisplay:10.37,2013-05-28 13:36:00,
2013-05-28 09:41:00,63.4,55.7,30.05,SSW,210,0.0,0.0,76,0.00,-RA,,0.00,99.0,WeatherDisplay:10.37,2013-05-28 13:41:00,
2013-05-28 09:46:00,63.2,55.1,30.05,SSW,210,0.0,0.0,75,0.01,-RA,,0.01,90.0,WeatherDisplay:10.37,2013-05-28 13:46:00,
2013-05-28 09:51:00,63.1,55.4,30.05,SSW,210,0.0,0.0,76,0.01,-RA,,0.01,91.0,WeatherDisplay:10.37,2013-05-28 13:51:00,
2013-05-28 09:56:00,62.9,56.3,30.05,SSW,210,0.0,0.0,79,0.01,-RA,,0.01,95.0,WeatherDisplay:10.37,2013-05-28 13:56:00,
2013-05-28 10:01:00,62.9,56.6,30.05,SSW,210,0.0,0.0,80,0.01,-RA,,0.01,91.0,WeatherDisplay:10.37,2013-05-28 14:01:00,
2013-05-28 10:06:00,62.9,57.0,30.05,SSW,210,0.0,0.0,81,0.01,-RA,,0.01,86.0,WeatherDisplay:10.37,2013-05-28 14:06:00,
2013-05-28 10:11:00,62.7,56.4,30.05,SSW,210,0.0,0.0,80,0.01,-RA,,0.01,74.0,WeatherDisplay:10.37,2013-05-28 14:11:00,
2013-05-28 10:16:00,62.6,56.7,30.05,SSW,210,0.0,0.0,81,0.02,-RA,,0.02,69.0,WeatherDisplay:10.37,2013-05-28 14:16:00,
2013-05-28 10:21:00,62.3,56.4,30.05,SSW,210,0.0,0.0,81,0.02,-RA,,0.03,81.0,WeatherDisplay:10.37,2013-05-28 14:21:00,
2013-05-28 10:26:00,62.3,56.4,30.05,SSW,210,0.0,0.0,81,0.03,-RA,,0.03,40.0,WeatherDisplay:10.37,2013-05-28 14:26:00,
2013-05-28 10:31:00,62.0,56.1,30.05,SSW,210,0.0,0.0,81,0.04,-RA,,0.04,39.0,WeatherDisplay:10.37,2013-05-28 14:31:00,
2013-05-28 10:36:00,61.8,56.2,30.05,SSW,210,0.0,0.0,82,0.05,-RA,,0.05,56.0,WeatherDisplay:10.37,2013-05-28 14:36:00,
2013-05-28 10:41:00,61.6,56.7,30.05,SSW,210,0.0,0.0,84,0.05,-RA,,0.05,69.0,WeatherDisplay:10.37,2013-05-28 14:41:00,
2013-05-28 10:46:00,61.5,56.9,30.05,SSW,210,0.0,0.0,85,0.05,-RA,,0.06,63.0,WeatherDisplay:10.37,2013-05-28 14:46:00,
2013-05-28 10:51:00,61.5,56.9,30.05,SSW,210,0.0,0.0,85,0.05,-RA,,0.06,93.0,WeatherDisplay:10.37,2013-05-28 14:51:00,
2013-05-28 10:56:00,61.5,57.3,30.05,SSW,210,0.0,0.0,86,0.05,-RA,,0.06,93.0,WeatherDisplay:10.37,2013-05-28 14:56:00,
2013-05-28 11:01:00,61.5,57.3,30.04,SSW,210,1.1,1.1,86,0.06,-RA,,0.07,111.0,WeatherDisplay:10.37,2013-05-28 15:01:00,
2013-05-28 11:06:00,61.3,57.1,30.04,NW,311,0.0,0.0,86,0.06,-RA,,0.07,132.0,WeatherDisplay:10.37,2013-05-28 15:06:00,
2013-05-28 11:11:00,61.2,57.0,30.04,North,356,0.0,0.0,86,0.06,-RA,,0.08,151.0,WeatherDisplay:10.37,2013-05-28 15:11:00,
2013-05-28 11:16:00,61.2,57.3,30.04,North,356,0.0,0.0,87,0.06,-RA,,0.08,148.0,WeatherDisplay:10.37,2013-05-28 15:16:00,
2013-05-28 11:21:00,61.2,57.3,30.04,North,356,0.0,0.0,87,0.06,-RA,,0.08,135.0,WeatherDisplay:10.37,2013-05-28 15:21:00,
2013-05-28 11:26:00,61.2,57.6,30.04,North,356,0.0,0.0,88,0.06,-RA,,0.09,164.0,WeatherDisplay:10.37,2013-05-28 15:26:00,
2013-05-28 11:31:00,61.2,57.6,30.05,North,357,1.1,1.1,88,0.05,-RA,,0.09,160.0,WeatherDisplay:10.37,2013-05-28 15:31:00,
2013-05-28 11:36:00,61.2,57.6,30.05,West,267,1.1,1.1,88,0.04,-RA,,0.09,151.0,WeatherDisplay:10.37,2013-05-28 15:36:00,
2013-05-28 11:41:00,61.0,57.4,30.05,West,270,0.0,0.0,88,0.05,-RA,,0.10,146.0,WeatherDisplay:10.37,2013-05-28 15:41:00,
2013-05-28 11:46:00,61.2,57.9,30.05,West,270,0.0,0.0,89,0.04,-RA,,0.10,155.0,WeatherDisplay:10.37,2013-05-28 15:46:00,
2013-05-28 11:51:00,61.2,57.9,30.05,NNW,346,0.0,0.0,89,0.04,-RA,,0.10,171.0,WeatherDisplay:10.37,2013-05-28 15:51:00,
2013-05-28 11:56:00,61.2,57.9,30.05,WSW,241,1.1,1.1,89,0.05,-RA,,0.11,174.0,WeatherDisplay:10.37,2013-05-28 15:56:00,
2013-05-28 12:01:00,61.2,57.9,30.04,WSW,241,0.0,0.0,89,0.04,-RA,,0.11,97.0,WeatherDisplay:10.37,2013-05-28 16:01:00,
2013-05-28 12:06:00,61.2,57.9,30.04,SSW,205,0.0,0.0,89,0.04,-RA,,0.11,99.0,WeatherDisplay:10.37,2013-05-28 16:06:00,
2013-05-28 12:11:00,61.0,57.7,30.04,SSW,203,0.0,0.0,89,0.05,-RA,,0.12,144.0,WeatherDisplay:10.37,2013-05-28 16:11:00,
2013-05-28 12:16:00,61.0,58.0,30.03,SSW,203,0.0,0.0,90,0.04,-RA,,0.12,95.0,WeatherDisplay:10.37,2013-05-28 16:16:00,
2013-05-28 12:21:00,61.2,58.2,30.03,SSW,203,0.0,0.0,90,0.04,-RA,,0.12,113.0,WeatherDisplay:10.37,2013-05-28 16:21:00,
2013-05-28 12:26:00,61.2,58.2,30.03,SSW,203,0.0,0.0,90,0.03,-RA,,0.12,109.0,WeatherDisplay:10.37,2013-05-28 16:26:00,
2013-05-28 12:31:00,61.2,58.2,30.03,SSW,200,1.0,0.0,90,0.03,-RA,,0.13,60.0,WeatherDisplay:10.37,2013-05-28 16:31:00,
2013-05-28 12:36:00,61.0,58.0,30.03,SSW,202,1.1,0.0,90,0.04,-RA,,0.13,81.0,WeatherDisplay:10.37,2013-05-28 16:36:00,
2013-05-28 12:41:00,60.9,57.9,30.03,SSW,202,0.0,0.0,90,0.04,-RA,,0.14,67.0,WeatherDisplay:10.37,2013-05-28 16:41:00,
2013-05-28 12:46:00,60.9,57.9,30.02,SSW,209,0.0,0.0,90,0.04,-RA,,0.14,102.0,WeatherDisplay:10.37,2013-05-28 16:46:00,
2013-05-28 12:51:00,60.9,57.9,30.02,South,188,0.0,0.0,90,0.05,-RA,,0.15,130.0,WeatherDisplay:10.37,2013-05-28 16:51:00,
2013-05-28 12:56:00,61.0,58.4,30.02,East,90,2.3,2.3,91,0.04,-RA,,0.15,132.0,WeatherDisplay:10.37,2013-05-28 16:56:00,
2013-05-28 13:01:00,61.0,58.4,30.01,SSW,196,1.0,0.0,91,0.04,-RA,,0.15,135.0,WeatherDisplay:10.37,2013-05-28 17:01:00,
2013-05-28 13:06:00,61.2,58.6,30.01,SE,124,0.0,0.0,91,0.04,-RA,,0.15,111.0,WeatherDisplay:10.37,2013-05-28 17:06:00,
2013-05-28 13:11:00,61.2,58.9,30.01,SSW,200,1.1,1.1,92,0.04,-RA,,0.16,88.0,WeatherDisplay:10.37,2013-05-28 17:11:00,
2013-05-28 13:16:00,61.3,59.0,30.01,West,281,1.1,1.1,92,0.04,-RA,,0.16,62.0,WeatherDisplay:10.37,2013-05-28 17:16:00,
2013-05-28 13:21:00,61.3,59.0,30.01,West,281,0.0,0.0,92,0.05,-RA,,0.18,77.0,WeatherDisplay:10.37,2013-05-28 17:21:00,
2013-05-28 13:26:00,61.5,59.2,30.01,West,281,0.0,0.0,92,0.06,-RA,,0.18,97.0,WeatherDisplay:10.37,2013-05-28 17:26:00,
2013-05-28 13:31:00,61.6,59.3,30.00,SE,136,1.1,0.0,92,0.07,RA,,0.19,104.0,WeatherDisplay:10.37,2013-05-28 17:31:00,
2013-05-28 13:36:00,61.6,59.3,30.00,SE,144,1.1,1.1,92,0.06,RA,,0.19,62.0,WeatherDisplay:10.37,2013-05-28 17:36:00,
2013-05-28 13:41:00,61.6,59.3,30.00,SSE,150,0.0,0.0,92,0.06,RA,,0.20,46.0,WeatherDisplay:10.37,2013-05-28 17:41:00,
2013-05-28 13:46:00,61.6,59.3,30.00,SSE,157,0.0,0.0,92,0.06,-RA,,0.20,49.0,WeatherDisplay:10.37,2013-05-28 17:46:00,
2013-05-28 13:51:00,61.8,59.8,30.00,SSE,157,0.0,0.0,93,0.06,-RA,,0.21,70.0,WeatherDisplay:10.37,2013-05-28 17:51:00,
2013-05-28 13:56:00,61.8,59.8,30.00,SSE,157,1.1,0.0,93,0.06,-RA,,0.21,60.0,WeatherDisplay:10.37,2013-05-28 17:56:00,
2013-05-28 14:01:00,62.0,60.0,30.00,SSE,157,0.0,0.0,93,0.07,-RA,,0.22,114.0,WeatherDisplay:10.37,2013-05-28 18:01:00,
2013-05-28 14:06:00,62.1,60.1,30.00,SSE,161,0.0,0.0,93,0.07,-RA,,0.22,99.0,WeatherDisplay:10.37,2013-05-28 18:06:00,
2013-05-28 14:11:00,62.1,60.1,30.00,SSE,161,1.0,1.0,93,0.06,-RA,,0.22,81.0,WeatherDisplay:10.37,2013-05-28 18:11:00,
2013-05-28 14:16:00,62.3,60.2,30.00,NW,325,2.3,2.3,93,0.06,-RA,,0.22,111.0,WeatherDisplay:10.37,2013-05-28 18:16:00,
2013-05-28 14:21:00,62.3,60.2,30.00,SSW,200,2.3,2.3,93,0.06,-RA,,0.23,111.0,WeatherDisplay:10.37,2013-05-28 18:21:00,
2013-05-28 14:26:00,62.3,60.2,30.00,SSW,209,0.0,0.0,93,0.05,-RA,,0.23,97.0,WeatherDisplay:10.37,2013-05-28 18:26:00,
2013-05-28 14:31:00,62.1,60.1,29.99,SW,216,0.0,0.0,93,0.04,-RA,,0.23,116.0,WeatherDisplay:10.37,2013-05-28 18:31:00,
2013-05-28 14:36:00,62.3,60.2,29.99,SW,215,1.1,0.0,93,0.04,-RA,,0.23,86.0,WeatherDisplay:10.37,2013-05-28 18:36:00,
2013-05-28 14:41:00,62.4,60.3,29.99,SSW,213,1.1,0.0,93,0.04,-RA,,0.24,128.0,WeatherDisplay:10.37,2013-05-28 18:41:00,
2013-05-28 14:46:00,62.4,60.3,30.00,SSW,213,0.0,0.0,93,0.04,-RA,,0.24,144.0,WeatherDisplay:10.37,2013-05-28 18:46:00,
2013-05-28 14:51:00,62.6,60.8,30.00,SSW,213,2.3,2.3,94,0.04,-RA,,0.25,106.0,WeatherDisplay:10.37,2013-05-28 18:51:00,
2013-05-28 14:56:00,62.6,60.8,30.00,SSW,196,0.0,0.0,94,0.04,-RA,,0.25,146.0,WeatherDisplay:10.37,2013-05-28 18:56:00,
2013-05-28 15:01:00,62.6,60.5,30.00,SSW,200,1.1,0.0,93,0.03,-RA,,0.25,118.0,WeatherDisplay:10.37,2013-05-28 19:01:00,
2013-05-28 15:06:00,62.6,60.8,30.00,SSW,205,0.0,0.0,94,0.03,-RA,,0.25,148.0,WeatherDisplay:10.37,2013-05-28 19:06:00,
2013-05-28 15:11:00,62.7,60.9,30.00,SW,216,1.1,1.1,94,0.03,-RA,,0.25,81.0,WeatherDisplay:10.37,2013-05-28 19:11:00,
2013-05-28 15:16:00,62.9,61.1,30.00,WSW,257,1.1,1.1,94,0.03,-RA,,0.25,104.0,WeatherDisplay:10.37,2013-05-28 19:16:00,
2013-05-28 15:21:00,62.7,60.9,30.00,SSW,199,0.0,0.0,94,0.03,-RA,,0.26,151.0,WeatherDisplay:10.37,2013-05-28 19:21:00,
2013-05-28 15:26:00,62.9,61.1,30.00,SW,232,0.0,0.0,94,0.03,-RA,,0.26,100.0,WeatherDisplay:10.37,2013-05-28 19:26:00,
2013-05-28 15:31:00,62.9,61.1,30.00,SW,229,1.1,1.1,94,0.03,-RA,,0.26,157.0,WeatherDisplay:10.37,2013-05-28 19:31:00,
2013-05-28 15:36:00,63.1,61.3,30.00,SW,226,1.1,0.0,94,0.03,-RA,,0.26,167.0,WeatherDisplay:10.37,2013-05-28 19:36:00,
2013-05-28 15:41:00,63.2,61.4,30.00,SW,223,1.1,0.0,94,0.02,-RA,,0.26,176.0,WeatherDisplay:10.37,2013-05-28 19:41:00,
2013-05-28 15:46:00,63.2,61.4,29.99,SW,215,1.1,1.1,94,0.02,-RA,,0.26,162.0,WeatherDisplay:10.37,2013-05-28 19:46:00,
2013-05-28 15:51:00,63.4,61.6,29.99,SW,215,0.0,0.0,94,0.01,-RA,,0.26,113.0,WeatherDisplay:10.37,2013-05-28 19:51:00,
2013-05-28 15:56:00,63.4,61.6,29.99,WSW,258,1.1,1.1,94,0.01,-RA,,0.26,106.0,WeatherDisplay:10.37,2013-05-28 19:56:00,
2013-05-28 16:01:00,63.4,61.6,29.99,SW,236,1.1,0.0,94,0.01,-RA,,0.26,72.0,WeatherDisplay:10.37,2013-05-28 20:01:00,
2013-05-28 16:06:00,63.4,61.6,29.99,SW,236,0.0,0.0,94,0.01,-RA,,0.26,76.0,WeatherDisplay:10.37,2013-05-28 20:06:00,
2013-05-28 16:11:00,63.4,61.6,29.99,SW,227,2.3,2.3,94,0.01,-RA,,0.26,70.0,WeatherDisplay:10.37,2013-05-28 20:11:00,
2013-05-28 16:16:00,63.4,61.6,29.98,SW,227,0.0,0.0,94,0.01,-RA,,0.26,60.0,WeatherDisplay:10.37,2013-05-28 20:16:00,
2013-05-28 16:21:00,63.4,61.6,29.98,SW,227,0.0,0.0,94,0.00,-RA,,0.26,88.0,WeatherDisplay:10.37,2013-05-28 20:21:00,
2013-05-28 16:26:00,63.4,61.6,29.98,SW,227,0.0,0.0,94,0.00,-RA,,0.26,135.0,WeatherDisplay:10.37,2013-05-28 20:26:00,
2013-05-28 16:31:00,63.5,61.7,29.98,SW,227,0.0,0.0,94,0.00,-RA,,0.26,137.0,WeatherDisplay:10.37,2013-05-28 20:31:00,
2013-05-28 16:36:00,63.5,61.7,29.98,SW,229,0.0,0.0,94,0.00,-RA,,0.26,130.0,WeatherDisplay:10.37,2013-05-28 20:36:00,
2013-05-28 16:41:00,63.7,61.9,29.98,SW,229,0.0,0.0,94,0.00,-RA,,0.26,146.0,WeatherDisplay:10.37,2013-05-28 20:41:00,
2013-05-28 16:46:00,63.7,61.9,29.98,SW,227,0.0,0.1,94,0.00,-RA,,0.26,148.0,WeatherDisplay:10.37,2013-05-28 20:46:00,
2013-05-28 16:51:00,63.7,61.9,29.98,SW,234,0.0,0.0,94,0.00,-RA,,0.26,139.0,WeatherDisplay:10.37,2013-05-28 20:51:00,
2013-05-28 16:56:00,63.7,61.9,29.98,SW,234,0.0,0.0,94,0.00,-RA,,0.26,125.0,WeatherDisplay:10.37,2013-05-28 20:56:00,
2013-05-28 17:01:00,63.9,62.1,29.98,SW,234,0.0,0.1,94,0.00,-RA,,0.26,134.0,WeatherDisplay:10.37,2013-05-28 21:01:00,
2013-05-28 17:06:00,63.9,62.1,29.98,SW,233,0.0,0.0,94,0.00,-RA,,0.26,93.0,WeatherDisplay:10.37,2013-05-28 21:06:00,
2013-05-28 17:11:00,64.0,62.2,29.98,SW,233,0.0,0.0,94,0.00,-RA,,0.26,99.0,WeatherDisplay:10.37,2013-05-28 21:11:00,
2013-05-28 17:16:00,64.0,62.2,29.98,SW,233,0.0,0.2,94,0.00,-RA,,0.26,69.0,WeatherDisplay:10.37,2013-05-28 21:16:00,
2013-05-28 17:21:00,63.9,62.1,29.98,SW,233,0.0,0.0,94,0.00,-RA,,0.26,46.0,WeatherDisplay:10.37,2013-05-28 21:21:00,
2013-05-28 17:26:00,63.9,62.1,29.98,SW,233,0.0,0.0,94,0.00,-RA,,0.26,44.0,WeatherDisplay:10.37,2013-05-28 21:26:00,
2013-05-28 17:31:00,63.7,61.9,29.97,SW,233,0.0,0.0,94,0.00,-RA,,0.26,69.0,WeatherDisplay:10.37,2013-05-28 21:31:00,
2013-05-28 17:36:00,63.9,62.1,29.97,SW,233,0.0,0.1,94,0.00,-RA,,0.26,48.0,WeatherDisplay:10.37,2013-05-28 21:36:00,
2013-05-28 17:41:00,63.9,62.1,29.97,SW,233,0.0,0.0,94,0.00,-RA,,0.26,37.0,WeatherDisplay:10.37,2013-05-28 21:41:00,
2013-05-28 17:46:00,63.9,62.1,29.97,SW,233,0.0,0.0,94,0.00,-RA,,0.26,40.0,WeatherDisplay:10.37,2013-05-28 21:46:00,
2013-05-28 17:51:00,63.9,62.1,29.97,SW,233,0.0,0.0,94,0.00,-RA,,0.26,44.0,WeatherDisplay:10.37,2013-05-28 21:51:00,
2013-05-28 17:56:00,63.9,62.1,29.97,SW,233,0.0,0.0,94,0.00,-RA,,0.26,46.0,WeatherDisplay:10.37,2013-05-28 21:56:00,
2013-05-28 18:01:00,64.0,62.2,29.97,SW,233,0.0,0.0,94,0.00,-RA,,0.26,56.0,WeatherDisplay:10.37,2013-05-28 22:01:00,
2013-05-28 18:06:00,64.0,62.2,29.97,SW,233,0.0,0.0,94,0.00,-RA,,0.26,49.0,WeatherDisplay:10.37,2013-05-28 22:06:00,
2013-05-28 18:11:00,64.0,62.2,29.97,SW,233,0.0,0.0,94,0.00,-RA,,0.26,55.0,WeatherDisplay:10.37,2013-05-28 22:11:00,
2013-05-28 18:16:00,64.0,62.2,29.97,SW,233,0.0,0.0,94,0.00,OVC,,0.26,51.0,WeatherDisplay:10.37,2013-05-28 22:16:00,
2013-05-28 18:21:00,64.0,62.2,29.97,SW,233,0.0,0.0,94,0.00,OVC,,0.26,44.0,WeatherDisplay:10.37,2013-05-28 22:21:00,
2013-05-28 18:26:00,64.0,62.2,29.97,SW,233,0.0,0.0,94,0.00,OVC,,0.26,46.0,WeatherDisplay:10.37,2013-05-28 22:26:00,
2013-05-28 18:31:00,64.0,62.2,29.97,SW,233,0.0,0.0,94,0.00,OVC,,0.26,33.0,WeatherDisplay:10.37,2013-05-28 22:31:00,
2013-05-28 18:36:00,64.0,62.2,29.97,SW,233,0.0,0.0,94,0.00,OVC,,0.26,25.0,WeatherDisplay:10.37,2013-05-28 22:36:00,
2013-05-28 18:41:00,64.0,62.2,29.97,SW,233,0.0,0.0,94,0.00,OVC,,0.26,28.0,WeatherDisplay:10.37,2013-05-28 22:41:00,
2013-05-28 18:46:00,64.0,62.2,29.97,SW,233,0.0,0.0,94,0.00,OVC,,0.26,26.0,WeatherDisplay:10.37,2013-05-28 22:46:00,
2013-05-28 18:51:00,64.0,62.2,29.97,SW,233,0.0,0.0,94,0.00,OVC,,0.26,25.0,WeatherDisplay:10.37,2013-05-28 22:51:00,
2013-05-28 18:56:00,64.0,62.2,29.97,SW,233,0.0,0.0,94,0.01,RA,,0.27,25.0,WeatherDisplay:10.37,2013-05-28 22:56:00,
2013-05-28 19:01:00,64.0,62.2,29.97,SW,233,0.0,0.0,94,0.01,RA,,0.27,23.0,WeatherDisplay:10.37,2013-05-28 23:01:00,
2013-05-28 19:06:00,64.2,62.4,29.97,SW,233,0.0,0.0,94,0.01,OVC,,0.27,26.0,WeatherDisplay:10.37,2013-05-28 23:06:00,
2013-05-28 19:11:00,64.2,62.4,29.97,SW,233,0.0,0.0,94,0.01,OVC,,0.27,28.0,WeatherDisplay:10.37,2013-05-28 23:11:00,
2013-05-28 19:16:00,64.2,62.4,29.97,SW,233,0.0,0.0,94,0.01,OVC,,0.27,32.0,WeatherDisplay:10.37,2013-05-28 23:16:00,
2013-05-28 19:21:00,64.2,62.4,29.97,SW,233,0.0,0.0,94,0.01,OVC,,0.27,30.0,WeatherDisplay:10.37,2013-05-28 23:21:00,
2013-05-28 19:26:00,64.2,62.4,29.97,SW,233,0.0,0.0,94,0.01,OVC,,0.27,33.0,WeatherDisplay:10.37,2013-05-28 23:26:00,
2013-05-28 19:31:00,64.2,62.4,29.97,SW,233,0.0,0.0,94,0.01,OVC,,0.27,19.0,WeatherDisplay:10.37,2013-05-28 23:31:00,
2013-05-28 19:36:00,64.2,62.4,29.97,SW,233,0.0,0.0,94,0.01,OVC,,0.27,14.0,WeatherDisplay:10.37,2013-05-28 23:36:00,
2013-05-28 19:41:00,64.2,62.4,29.97,SW,233,0.0,0.0,94,0.01,OVC,,0.27,9.0,WeatherDisplay:10.37,2013-05-28 23:41:00,
2013-05-28 19:46:00,64.2,62.4,29.97,SW,233,0.0,0.0,94,0.01,OVC,,0.27,7.0,WeatherDisplay:10.37,2013-05-28 23:46:00,
2013-05-28 19:51:00,64.2,62.4,29.97,SW,233,0.0,0.0,94,0.01,OVC,,0.27,11.0,WeatherDisplay:10.37,2013-05-28 23:51:00,
2013-05-28 19:56:00,64.2,62.4,29.97,SW,233,0.0,0.0,94,0.00,OVC,,0.27,9.0,WeatherDisplay:10.37,2013-05-28 23:56:00,
2013-05-28 20:01:00,64.0,62.2,29.96,SW,233,0.0,0.0,94,0.00,OVC,,0.27,9.0,WeatherDisplay:10.37,2013-05-29 00:01:00,
2013-05-28 20:06:00,64.0,62.2,29.96,SW,233,0.0,0.0,94,0.00,OVC,,0.27,7.0,WeatherDisplay:10.37,2013-05-29 00:06:00,
2013-05-28 20:11:00,64.0,62.2,29.96,SW,233,0.0,0.0,94,0.00,OVC,,0.27,5.0,WeatherDisplay:10.37,2013-05-29 00:11:00,
2013-05-28 20:16:00,63.9,62.1,29.95,SW,233,0.0,0.0,94,0.00,OVC,,0.27,0.0,WeatherDisplay:10.37,2013-05-29 00:16:00,
2013-05-28 20:21:00,63.9,62.1,29.95,SW,233,0.0,0.0,94,0.00,OVC,,0.27,0.0,WeatherDisplay:10.37,2013-05-29 00:21:00,
2013-05-28 20:26:00,63.9,62.1,29.95,SW,233,0.0,0.0,94,0.00,OVC,,0.27,0.0,WeatherDisplay:10.37,2013-05-29 00:26:00,
2013-05-28 20:31:00,63.9,62.1,29.96,WSW,246,0.0,0.0,94,0.00,OVC,,0.27,0.0,WeatherDisplay:10.37,2013-05-29 00:31:00,
2013-05-28 20:36:00,63.9,62.1,29.96,WSW,246,0.0,0.0,94,0.00,OVC,,0.27,0.0,WeatherDisplay:10.37,2013-05-29 00:36:00,
2013-05-28 20:41:00,63.9,62.1,29.96,WSW,246,0.0,0.0,94,0.00,OVC,,0.27,0.0,WeatherDisplay:10.37,2013-05-29 00:41:00,
2013-05-28 20:46:00,63.9,62.1,29.96,WSW,246,0.0,0.0,94,0.00,OVC,,0.27,0.0,WeatherDisplay:10.37,2013-05-29 00:46:00,
2013-05-28 20:51:00,63.9,62.1,29.96,WSW,246,0.0,0.0,94,0.00,OVC,,0.27,0.0,WeatherDisplay:10.37,2013-05-29 00:51:00,
2013-05-28 20:56:00,63.9,62.1,29.96,WSW,246,0.0,0.0,94,0.00,OVC,,0.27,0.0,WeatherDisplay:10.37,2013-05-29 00:56:00,
2013-05-28 21:01:00,63.9,62.4,29.95,WSW,246,0.0,0.0,95,0.00,OVC,,0.27,0.0,WeatherDisplay:10.37,2013-05-29 01:01:00,
2013-05-28 21:06:00,64.0,62.5,29.95,WSW,246,0.0,0.0,95,0.00,OVC,,0.27,0.0,WeatherDisplay:10.37,2013-05-29 01:06:00,
2013-05-28 21:11:00,64.0,62.5,29.95,WSW,246,0.0,0.1,95,0.00,OVC,,0.27,0.0,WeatherDisplay:10.37,2013-05-29 01:11:00,
2013-05-28 21:16:00,63.9,62.4,29.95,WSW,246,0.0,0.0,95,0.00,OVC,,0.27,0.0,WeatherDisplay:10.37,2013-05-29 01:16:00,
2013-05-28 21:21:00,63.9,62.4,29.95,WSW,246,0.0,0.0,95,0.00,OVC,,0.27,0.0,WeatherDisplay:10.37,2013-05-29 01:21:00,
2013-05-28 21:26:00,63.9,62.4,29.95,WSW,246,0.0,0.0,95,0.00,OVC,,0.27,0.0,WeatherDisplay:10.37,2013-05-29 01:26:00,
2013-05-28 21:31:00,63.9,62.4,29.95,WSW,246,0.0,0.1,95,0.00,OVC,,0.27,0.0,WeatherDisplay:10.37,2013-05-29 01:31:00,
2013-05-28 21:36:00,63.9,62.4,29.95,WSW,246,0.0,0.0,95,0.00,OVC,,0.27,0.0,WeatherDisplay:10.37,2013-05-29 01:36:00,
2013-05-28 21:41:00,63.9,62.4,29.95,WSW,246,1.1,1.1,95,0.00,OVC,,0.27,0.0,WeatherDisplay:10.37,2013-05-29 01:41:00,
2013-05-28 21:46:00,63.7,62.2,29.95,WSW,246,0.0,0.0,95,0.00,OVC,,0.27,0.0,WeatherDisplay:10.37,2013-05-29 01:46:00,
2013-05-28 21:51:00,63.7,62.2,29.95,WSW,246,0.0,0.0,95,0.00,OVC,,0.27,0.0,WeatherDisplay:10.37,2013-05-29 01:51:00,
2013-05-28 21:56:00,63.7,62.2,29.95,WSW,246,0.0,0.0,95,0.00,OVC,,0.27,0.0,WeatherDisplay:10.37,2013-05-29 01:56:00,
2013-05-28 22:01:00,63.7,62.2,29.96,WSW,246,1.1,1.1,95,0.00,OVC,,0.27,0.0,WeatherDisplay:10.37,2013-05-29 02:01:00,
2013-05-28 22:06:00,63.5,62.0,29.96,SW,215,0.0,0.0,95,0.00,OVC,,0.27,0.0,WeatherDisplay:10.37,2013-05-29 02:06:00,
2013-05-28 22:11:00,63.5,62.0,29.96,SW,215,0.0,0.0,95,0.00,OVC,,0.27,0.0,WeatherDisplay:10.37,2013-05-29 02:11:00,
2013-05-28 22:16:00,63.5,62.0,29.96,SW,215,0.0,0.0,95,0.00,OVC,,0.27,0.0,WeatherDisplay:10.37,2013-05-29 02:16:00,
2013-05-28 22:21:00,63.5,62.0,29.96,SW,215,0.0,0.0,95,0.00,OVC,,0.27,0.0,WeatherDisplay:10.37,2013-05-29 02:21:00,
2013-05-28 22:26:00,63.4,61.9,29.96,SW,215,0.0,0.0,95,0.00,OVC,,0.27,0.0,WeatherDisplay:10.37,2013-05-29 02:26:00,
2013-05-28 22:31:00,63.4,61.9,29.97,SW,215,0.0,0.0,95,0.00,OVC,,0.27,0.0,WeatherDisplay:10.37,2013-05-29 02:31:00,
2013-05-28 22:36:00,63.4,61.9,29.97,SW,215,0.0,0.0,95,0.00,OVC,,0.27,0.0,WeatherDisplay:10.37,2013-05-29 02:36:00,
2013-05-28 22:41:00,63.4,61.9,29.97,SW,215,1.1,1.1,95,0.00,OVC,,0.27,0.0,WeatherDisplay:10.37,2013-05-29 02:41:00,
2013-05-28 22:46:00,63.4,61.9,29.96,SW,215,0.0,0.0,95,0.00,OVC,,0.27,0.0,WeatherDisplay:10.37,2013-05-29 02:46:00,
2013-05-28 22:51:00,63.2,61.7,29.96,SW,215,0.0,0.0,95,0.00,OVC,,0.27,0.0,WeatherDisplay:10.37,2013-05-29 02:51:00,
2013-05-28 22:56:00,63.2,61.7,29.96,SW,216,0.0,0.0,95,0.00,OVC,,0.27,0.0,WeatherDisplay:10.37,2013-05-29 02:56:00,
2013-05-28 23:01:00,63.2,61.7,29.95,SW,216,0.0,0.0,95,0.00,OVC,,0.27,0.0,WeatherDisplay:10.37,2013-05-29 03:01:00,
2013-05-28 23:06:00,63.1,61.6,29.95,South,174,1.1,1.1,95,0.00,OVC,,0.27,0.0,WeatherDisplay:10.37,2013-05-29 03:06:00,
2013-05-28 23:11:00,63.1,61.6,29.95,South,189,1.1,1.1,95,0.00,OVC,,0.27,0.0,WeatherDisplay:10.37,2013-05-29 03:11:00,
2013-05-28 23:16:00,63.1,61.6,29.95,South,189,0.0,0.0,95,0.00,BKN,,0.27,0.0,WeatherDisplay:10.37,2013-05-29 03:16:00,
2013-05-28 23:21:00,62.9,61.4,29.95,South,189,0.0,0.0,95,0.00,BKN,,0.27,0.0,WeatherDisplay:10.37,2013-05-29 03:21:00,
2013-05-28 23:26:00,62.9,61.4,29.95,South,189,0.0,0.0,95,0.00,BKN,,0.27,0.0,WeatherDisplay:10.37,2013-05-29 03:26:00,
2013-05-28 23:31:00,62.9,61.4,29.95,NNE,28,0.0,0.0,95,0.00,OVC,,0.27,0.0,WeatherDisplay:10.37,2013-05-29 03:31:00,
2013-05-28 23:36:00,62.9,61.4,29.95,NNE,28,0.0,0.0,95,0.00,OVC,,0.27,0.0,WeatherDisplay:10.37,2013-05-29 03:36:00,
2013-05-28 23:41:00,62.9,61.4,29.95,NNE,32,1.1,0.0,95,0.00,OVC,,0.27,0.0,WeatherDisplay:10.37,2013-05-29 03:41:00,
2013-05-28 23:46:00,62.7,61.2,29.95,NNE,32,0.0,0.0,95,0.00,OVC,,0.27,0.0,WeatherDisplay:10.37,2013-05-29 03:46:00,
2013-05-28 23:51:00,62.7,61.2,29.95,NNE,32,0.0,0.0,95,0.00,OVC,,0.27,0.0,WeatherDisplay:10.37,2013-05-29 03:51:00,
2013-05-28 23:56:00,62.7,61.2,29.95,NNE,32,0.0,0.0,95,0.00,OVC,,0.27,0.0,WeatherDisplay:10.37,2013-05-29 03:56:00,